Content
SEND FEEDBACK

Daily
Averages
Monthly
Summary
Mauritania

PORT-ETIENNE, MAURITANIA


Home > Africa > Mauritania
Elevation: 10 feet     Latitude: 20 54N     Longitude: 017 06W

WEATHER
 
SELECT A DAY
Number of Records: 117,687;   Date Range: 7/1/96 - 7/30/14
 
SHARE

PRINT THIS DATA

[ ← Previous Day ]
WEATHER ALMANAC - MAY 12, 2013
[ Next Day → ]
[ °C ]   °F
Weather ElementAverageHighLow
Temperature72.2 °F87.8 °F (11:00 am)66 °F (6:00 am)
Dewpoint62.1 °F65 °F (9:00 pm)55.4 °F (11:00 am)
Humidity70.7 %88 % (10:00 pm)33 % (11:00 am)
Barometer29.87 in29.92 in (9:00 am)29.83 in (4:00 pm)
Wind Speed16.6 mph23 mph (5:00 pm)
Weather ElementAverage
Visibility4.3 mi
Wind DirectionNNW (329.3 °)

Weather ElementTotal
Precipitation---
Cooling Degree Days11.9 (Base 65)
Growing Degree Days26.9 (Base 50)
Averaged from 30 records on May 12, 2013
WEATHER CONDITIONS BREAKOUT
WIND DIRECTION BREAKOUT
WEATHER BY HOUR - MAY 12, 2013
[ °C ]   °F
Local TimeTemperatureDewpointHumidityBarometerVisibilityWind DirectionWind SpeedGust SpeedPrecipitationEventsConditions
12:00 AM69.8 °F59.0 °F68 %29.89 in5.0 miNNW (340°)15.0 mph
1:00 AM69.8 °F59.0 °F68 %29.86 in5.0 miNNW (340°)16.1 mph
2:00 AM69.8 °F60.8 °F73 %29.86 in5.0 miNNW (340°)16.1 mph
3:00 AM68.0 °F62.0 °F77 %29.88 in5.0 miNNW (340°)13.8 mph
3:00 AM68.0 °F60.8 °F78 %29.86 in5.0 miNNW (340°)15.0 mph
4:00 AM68.0 °F62.6 °F83 %29.86 in5.0 miNNW (340°)15.0 mph
5:00 AM68.0 °F62.6 °F83 %29.86 in5.0 miNNW (340°)12.7 mph
6:00 AM66.2 °F60.8 °F83 %29.86 in5.0 miNNW (330°)11.5 mph
6:00 AM66.0 °F63.0 °F86 %29.89 in5.0 miNNW (330°)11.5 mph
7:00 AM66.2 °F60.8 °F83 %29.89 in5.0 miNNW (330°)11.5 mph
8:00 AM68.0 °F60.8 °F78 %29.89 in5.0 miNNW (340°)12.7 mph
9:00 AM72.0 °F62.0 °F63 %29.92 in5.0 miNNW (340°)11.5 mph
9:00 AM73.4 °F60.8 °F65 %29.89 in5.0 miNNW (340°)12.7 mph
10:00 AM80.6 °F57.2 °F45 %29.92 in5.0 miNorth (350°)17.3 mph
11:00 AM87.8 °F55.4 °F33 %29.92 in5.0 miNorth (360°)19.6 mph
12:00 PM78.8 °F62.6 °F57 %29.92 in5.0 miNW (320°)13.8 mph
12:00 PM80.0 °F64.0 °F48 %29.92 in5.0 miNW (320°)13.8 mphClear
1:00 PM78.8 °F62.6 °F57 %29.89 in5.0 miNW (310°)17.3 mph
2:00 PM77.0 °F64.4 °F65 %29.86 in5.0 miNW (320°)19.6 mph
3:00 PM77.0 °F64.0 °F55 %29.87 in4.0 miSW (220°)20.7 mphBlowing Sand
3:00 PM77.0 °F64.4 °F65 %29.86 in5.0 miNW (320°)19.6 mph
4:00 PM75.2 °F64.4 °F69 %29.83 in1.9 miNW (320°)20.7 mphLow Drifting Sand
5:00 PM73.4 °F64.4 °F73 %29.83 in1.9 miNW (320°)23.0 mphLow Drifting Sand
6:00 PM73.4 °F64.4 °F73 %29.83 in1.9 miNW (320°)20.7 mphLow Drifting Sand
7:00 PM71.6 °F64.4 °F78 %29.83 in1.9 miNNW (340°)20.7 mphLow Drifting Sand
8:00 PM69.8 °F62.6 °F78 %29.83 in1.9 miNNW (340°)23.0 mphLow Drifting Sand
9:00 PM69.0 °F65.0 °F82 %29.88 in4.0 miNNW (330°)17.3 mph
9:00 PM68.0 °F62.6 °F83 %29.86 in3.7 miNNW (330°)19.6 mph
10:00 PM68.0 °F64.4 °F88 %29.89 in3.7 miNNW (330°)18.4 mph
11:00 PM68.0 °F62.6 °F83 %29.89 in5.0 miNNW (340°)17.3 mph
Hourly data recorded from GQPP, located miles away from Port-Etienne, Mauritania







STORIES FROM OUR PARTNERS